Regional Weather Roundup
Issued by NWS

Home | Current Version | Previous Version | Graphics & Text | Print | Product List | Glossary On
Versions: 1 2 3 4 5 6 7 8 9 10 11 12 13 14 15 16 17 18 19 20 21 22 23 24 25 26 27 28 29 30 31 32 33 34 35 36 37 38 39 40 41 42 43 44 45 46 47 48 49 50
000
ASUS43 KMKX 221521
RWRWI

WISCONSIN REGIONAL WEATHER ROUNDUP
NATIONAL WEATHER SERVICE MILWAUKEE/SULLIVAN WI
1000 AM CDT SUN OCT 22 2017

NOTE: "FAIR" INDICATES FEW OR NO CLOUDS BELOW 12,000 FEET WITH NO
SIGNIFICANT WEATHER AND/OR OBSTRUCTIONS TO VISIBILITY.

WIZ001-002-006>008-014>016-023>028-221600-
NORTHWEST WISCONSIN

CITY           SKY/WX    TMP DP  RH WIND       PRES   REMARKS
SUPERIOR ARPT  CLOUDY    48  42  79 SW12      29.89R
ASHLAND        CLOUDY    50  41  71 SW12      29.90R
HAYWARD        CLOUDY    49  40  71 VRB6      29.92S
SIREN          CLOUDY    48  40  74 SW7       29.94R
CUMBERLAND     CLOUDY    46  37  71 W7        29.95R
RICE LAKE      CLOUDY    49  41  73 W5        29.97R
CHETEK         CLOUDY    49  42  74 W9        29.95S
LADYSMITH      CLOUDY    49  44  83 SW3       29.96R
EAU CLAIRE     CLOUDY    50  44  80 W5        29.96R
MENOMONIE      CLOUDY    51  42  71 W7        29.98R
NEW RICHMOND   CLOUDY    48  39  71 W7        29.98R
OSCEOLA        CLOUDY    49  41  73 SW6       29.99S
$$

WIZ003>005-009-010-017-018-221600-
NORTH CENTRAL WISCONSIN

CITY           SKY/WX    TMP DP  RH WIND       PRES   REMARKS
MANITOWISH WTR RAIN      47  47 100 W6        29.91R
ARBOR VITAE    LGT RAIN  49  47  93 W5        29.91R
WOODRUFF       LGT RAIN  49  47  93 W5        29.91R
RHINELANDER    LGT RAIN  49  48  97 W9        29.92F
EAGLE RIVER    NOT AVBL
LAND O LAKES   CLOUDY    48  46  91 W3        29.91S
PHILLIPS       CLOUDY    47  46  95 W5        29.92S
TOMAHAWK       CLOUDY    47  45  91 CALM      29.93S
MEDFORD        DRIZZLE   47  44  90 W8        29.94R
MERRILL        DRIZZLE   49  47  91 W6        29.94S
$$

WIZ029-030-035-036-043>047-221600-
CENTRAL WISCONSIN

CITY           SKY/WX    TMP DP  RH WIND       PRES   REMARKS
WAUSAU         LGT RAIN  50  46  86 NW9       29.92R
MOSINEE        DRIZZLE   48  48 100 W9        29.95R
MARSHFIELD     LGT RAIN  49  45  86 NW9       29.94R
STEVENS POINT  LGT RAIN  49  48  97 NW3       29.95S
WAUPACA        DRIZZLE   54  49  86 NW7       29.94R
WAUTOMA        CLOUDY   N/A N/A N/A NW7       29.95R
WISC RAPIDS    LGT RAIN  51  48  89 NW8       29.96R
CAMP DOUGLAS   LGT RAIN  50  50 100 NW7       29.96R
$$

WIZ011>013-019>022-031-037>040-048>050-221600-
NORTHEAST WISCONSIN

CITY           SKY/WX    TMP DP  RH WIND       PRES   REMARKS
ANTIGO         RAIN      48  47  94 W8        29.93S
SHAWANO        RAIN      55  52  89 W6        29.92R
OCONTO         CLOUDY    60  58  94 S3        29.87S
STURGEON BAY   LGT RAIN  58  56  93 S12       29.89F
GREEN BAY      LGT RAIN  56  56 100 NW18G24   29.90R
MANITOWOC      CLOUDY    60  55  83 S12       29.90F
APPLETON       CLOUDY    54  54 100 W14       29.89R
CLINTONVILLE   DRIZZLE   52  46  82 NW9G23    29.92R
OSHKOSH        CLOUDY    54  51  90 NW10      29.91S
$$

WIZ032>034-041-042-053>061-221600-
SOUTHWEST WISCONSIN

CITY           SKY/WX    TMP DP  RH WIND       PRES   REMARKS
LA CROSSE      CLOUDY    53  47  79 W3        29.99R
SPARTA         LGT RAIN  49  47  95 W7        29.98R
VIROQUA        CLOUDY    49  49  97 NW7       29.98R
BOSCOBEL       CLOUDY    54  48  80 NW3       29.99R
PRAIRIE DU CHI CLOUDY    52  46  79 NW8       29.99S
PLATTEVILLE    CLOUDY    52  51  97 NW12      29.98S
$$

WIZ056-057-062-063-064-067-068-221600-
SOUTH CENTRAL WISCONSIN

CITY           SKY/WX    TMP DP  RH WIND       PRES   REMARKS
REEDSBURG      DRIZZLE   51  51 100 W5        29.96R
BARABOO/DELLS  DRIZZLE   51  49  92 NW6       29.95S
LONE ROCK      LGT RAIN  53  51  93 NW9       29.98R
MINERAL POINT  LGT RAIN  52  52 100 NW10      29.97R
MADISON        DRIZZLE   53  52  96 NW12      29.94R FOG
MIDDLETON      CLOUDY    54  54  98 NW10      29.95R
WATERTOWN      LGT RAIN  61  61 100 SW7       29.91R
MONROE         DRIZZLE   52  50  93 NW9G18    29.95R
JANESVILLE     LGT RAIN  63  63 100 S9        29.90S
$$

WIZ051-052-058>065-066-070>072-221600-
SOUTHEAST WISCONSIN

CITY           SKY/WX    TMP DP  RH WIND       PRES   REMARKS
MILWAUKEE      CLOUDY    67  60  78 S13       29.93R
WAUKESHA       RAIN      64  57  77 S13G23    29.95R FOG
MILWAUKEE/TIMM CLOUDY    66  55  68 S13       29.91F
RACINE         CLOUDY    64  57  78 S10       29.94S
BURLINGTON     RAIN      63  63 100 S8        29.92R
KENOSHA        CLOUDY    67  58  72 S12       29.93S
FOND DU LAC    LGT RAIN  55  51  86 NW15      29.91R
SHEBOYGAN      LGT RAIN  63  59  87 S8        29.90F
WEST BEND      CLOUDY    64  61  88 S8        29.90S
JUNEAU         DRIZZLE   53  51  94 NW8G20    29.93R
$$

LSZ147-162-221600-
LAKE SUPERIOR

STATION/POSITION TIME  TEMP    WIND        PRES    WAVE
                       AIR SEA DIR/SP/G            HT/PER
                 (UTC) (F)     (DEG/KT/KT) (MB)    (FT/S)
W MID LAKE BUOY  1450   52 52              1010.2R   5/ 5
DEVILS ISLAND    1500   52     240/ 21/ 25 1011.4R
PORT WING        1240          210/  8/ 23 1010.8
SAXON HARBOR     1440   52     220/  8/ 12 1011.5S
$$

LMZ867-665-643>646-221600-
LAKE MICHIGAN

STATION/POSITION TIME  TEMP    WIND        PRES    WAVE
                       AIR SEA DIR/SP/G            HT/PER
                 (UTC) (F)     (DEG/KT/KT) (MB)    (FT/S)
S GREEN BAY BUOY 1500   59 58  180/ 14/ 17 1011.3
N MID LAKE BUOY  1450   61 58  180/ 19/ 21 1013.0R   7/ 6
NORTHPORT PIER   1500   59     160/  8/ 20 1012.2
KEWAUNEE LAKESHO 1454   52     170/ 11/ 12 1011.5F
SHEBOYGAN LAKESH 1500   55     180/ 19/ 20 1012.4F
PORT WASHINGTON  1430   59     190/  7/ 11 1013.9S
ATWATER BUOY     1409   57 52  160/ 16/ 19 1012.9F
MILWAUKEE LAKESH 1500   56     160/ 15/ 17   N/A
S MID LAKE BUOY  1450   63 61  150/ 19/ 21 1014.2F   4/ 5
KENOSHA   LAKESH 1500   55     170/  9/ 13 1013.5
$$

TC  - TEMPERATURE IN CELSIUS
VSB - VISIBILITY IN STATUTE MILES
WCI - WIND CHILL INDEX
HX  - HEAT INDEX





USA.gov is the U.S. government's official web portal to all federal, state and local government web resources and services.